FW3914 Weather Reports


Display with metric or nautical units.
time (UTC)temp
F
wind
direction
speed
MPH
gust
MPH
rain 1hr
in
rain 24hr
in
rain mn
in
humidity
%
barometer
mb
20260903042331 82 335 2.0 4.0 0.00 0.00 0.00 73 1013.9
20260903041827 83 37 3.0 9.0 0.00 0.00 0.00 72 1013.9
20260903041323 83 11 5.0 6.0 0.00 0.00 0.00 72 1014.0
20260903040819 83 47 4.0 8.0 0.00 0.00 0.00 71 1014.0
20260903040317 83 11 3.0 7.0 0.00 0.00 0.00 71 1013.9
20260903035814 83 22 3.0 6.0 0.00 0.00 0.00 71 1014.0
20260903035309 84 1 5.0 7.0 0.00 0.00 0.00 70 1014.0
20260903034804 84 109 0.0 5.0 0.00 0.00 0.00 69 1013.8
20260903034259 84 9 2.0 7.0 0.00 0.00 0.00 69 1013.6
20260903033754 84 329 2.0 6.0 0.00 0.00 0.00 69 1013.8
20260903033250 84 37 3.0 6.0 0.00 0.00 0.00 68 1013.6
20260903032744 84 28 3.0 7.0 0.00 0.00 0.00 68 1013.9
20260903032240 85 44 0.0 6.0 0.00 0.00 0.00 67 1013.7
20260903031735 85 22 2.0 7.0 0.00 0.00 0.00 66 1013.7
20260903031229 85 0 3.0 11.0 0.00 0.00 0.00 66 1013.9
20260903030725 85 6 3.0 6.0 0.00 0.00 0.00 65 1013.8
20260903030221 85 343 4.0 5.0 0.00 0.00 0.00 65 1013.8
20260903025716 86 319 3.0 13.0 0.00 0.00 0.00 64 1013.9
20260903025212 86 82 2.0 6.0 0.00 0.00 0.00 64 1013.8
20260903024712 86 79 3.0 10.0 0.00 0.00 0.00 64 1013.8
20260903024211 86 73 3.0 9.0 0.00 0.00 0.00 63 1013.8
20260903023707 86 58 5.0 16.0 0.00 0.00 0.00 63 1013.6
20260903023201 87 290 3.0 8.0 0.00 0.00 0.00 63 1013.6
20260903022655 87 299 3.0 11.0 0.00 0.00 0.00 62 1013.6
20260903022150 87 317 5.0 11.0 0.00 0.00 0.00 61 1013.2
20260903021649 88 30 3.0 9.0 0.00 0.00 0.00 61 1013.1
20260903021144 88 12 3.0 12.0 0.00 0.00 0.00 61 1013.1
20260903020639 89 306 2.0 10.0 0.00 0.00 0.00 60 1013.1
20260903020134 89 273 3.0 7.0 0.00 0.00 0.00 58 1012.9
20260903015629 90 335 3.0 7.0 0.00 0.00 0.00 57 1013.0
20260903015125 90 271 3.0 8.0 0.00 0.00 0.00 57 1012.7
20260903014624 90 51 3.0 12.0 0.00 0.00 0.00 56 1012.7
20260903014124 90 44 2.0 14.0 0.00 0.00 0.00 54 1012.7
20260903013619 91 19 2.0 7.0 0.00 0.00 0.00 54 1012.7
20260903013114 91 359 4.0 5.0 0.00 0.00 0.00 53 1012.5
20260903012613 91 32 4.0 6.0 0.00 0.00 0.00 53 1012.2
20260903012112 91 316 1.0 4.0 0.00 0.00 0.00 53 1012.3
20260903011612 91 11 1.0 9.0 0.00 0.00 0.00 52 1012.6
20260903011112 91 88 1.0 5.0 0.00 0.00 0.00 52 1012.4
20260903010607 92 326 2.0 5.0 0.00 0.00 0.00 52 1012.3
20260903010105 92 340 3.0 7.0 0.00 0.00 0.00 51 1012.2
20260903005600 92 42 2.0 10.0 0.00 0.00 0.00 51 1012.3
20260903005056 93 346 3.0 8.0 0.00 0.00 0.00 51 1012.4
20260903004556 93 67 0.0 6.0 0.00 0.00 0.00 51 1012.0
20260903004051 93 7 3.0 6.0 0.00 0.00 0.00 50 1012.2
20260903003546 93 27 1.0 5.0 0.00 0.00 0.00 50 1012.1
20260903003041 93 316 3.0 7.0 0.00 0.00 0.00 50 1012.3
20260903002536 93 292 3.0 6.0 0.00 0.00 0.00 50 1012.0
20260903002031 94 13 3.0 7.0 0.00 0.00 0.00 50 1012.0
20260903001526 94 339 2.0 7.0 0.00 0.00 0.00 50 1011.8
20260903001025 94 32 4.0 8.0 0.00 0.00 0.00 49 1011.9
20260903000520 95 19 3.0 10.0 0.00 0.00 0.00 49 1012.0
20260903000014 95 72 3.0 10.0 0.00 0.00 0.00 49 1011.9
20260902235508 96 36 2.0 5.0 0.00 0.00 0.00 48 1012.1
20260902235003 97 228 0.0 6.0 0.00 0.00 0.00 47 1012.1
20260902234458 97 351 1.0 6.0 0.00 0.00 0.00 47 1011.8
20260902233956 96 28 3.0 9.0 0.00 0.00 0.00 47 1011.9
20260902233456 97 14 5.0 8.0 0.00 0.00 0.00 47 1012.0
20260902232951 97 23 2.0 9.0 0.00 0.00 0.00 47 1011.9
20260902232445 97 45 2.0 6.0 0.00 0.00 0.00 47 1012.0
20260902231944 96 64 3.0 11.0 0.00 0.00 0.00 48 1011.9
20260902231439 95 54 3.0 13.0 0.00 0.00 0.00 49 1011.9
20260902230934 96 24 5.0 11.0 0.00 0.00 0.00 47 1011.7
20260902230433 97 34 4.0 7.0 0.00 0.00 0.00 46 1011.9
20260902225928 96 53 4.0 9.0 0.00 0.00 0.00 47 1011.9
20260902225423 96 300 4.0 11.0 0.00 0.00 0.00 47 1011.9
20260902224922 96 26 7.0 13.0 0.00 0.00 0.00 48 1011.8
20260902224422 97 26 3.0 11.0 0.00 0.00 0.00 47 1011.7
20260902223919 99 59 4.0 14.0 0.00 0.00 0.00 44 1011.7
20260902223418 100 5 3.0 9.0 0.00 0.00 0.00 42 1011.8
20260902222913 102 336 2.0 7.0 0.00 0.00 0.00 42 1011.8
20260902222411 101 345 2.0 5.0 0.00 0.00 0.00 42 1011.7
20260902221911 100 289 5.0 6.0 0.00 0.00 0.00 43 1011.8
20260902221410 101 338 2.0 9.0 0.00 0.00 0.00 42 1011.6
20260902220906 102 301 3.0 5.0 0.00 0.00 0.00 42 1011.8
20260902220405 101 15 4.0 9.0 0.00 0.00 0.00 41 1011.9
20260902215900 100 354 4.0 9.0 0.00 0.00 0.00 42 1011.9
20260902215355 101 357 3.0 7.0 0.00 0.00 0.00 41 1012.0
20260902214852 100 311 3.0 11.0 0.00 0.00 0.00 42 1011.8
20260902214350 100 334 2.0 10.0 0.00 0.00 0.00 42 1011.8
20260902213845 100 338 2.0 9.0 0.00 0.00 0.00 42 1012.0
20260902213341 100 333 5.0 8.0 0.00 0.00 0.00 42 1012.0
20260902212839 100 344 2.0 6.0 0.00 0.00 0.00 41 1012.1
20260902212337 101 316 4.0 7.0 0.00 0.00 0.00 41 1012.0
20260902211833 100 334 3.0 8.0 0.00 0.00 0.00 41 1012.0
20260902211328 100 19 3.0 6.0 0.00 0.00 0.00 42 1011.9
20260902210823 101 32 0.0 7.0 0.00 0.00 0.00 42 1012.3
20260902210323 101 11 3.0 10.0 0.00 0.00 0.00 41 1012.1
20260902205820 101 346 1.0 8.0 0.00 0.00 0.00 41 1012.4
20260902205316 101 331 3.0 6.0 0.00 0.00 0.00 41 1012.3
20260902204812 101 29 2.0 7.0 0.00 0.00 0.00 41 1012.7
20260902204306 101 335 3.0 10.0 0.00 0.00 0.00 42 1012.6
20260902203801 101 312 3.0 6.0 0.00 0.00 0.00 42 1012.7
20260902203256 101 282 4.0 8.0 0.00 0.00 0.00 42 1012.9
20260902202751 100 344 4.0 8.0 0.00 0.00 0.00 42 1012.9
20260902202248 99 246 3.0 8.0 0.00 0.00 0.00 43 1012.8
20260902201744 100 313 4.0 8.0 0.00 0.00 0.00 42 1013.0
20260902201244 100 357 4.0 11.0 0.00 0.00 0.00 43 1013.2
20260902200739 99 352 2.0 9.0 0.00 0.00 0.00 43 1013.2
20260902200234 100 54 4.0 7.0 0.00 0.00 0.00 43 1013.4
20260902195730 100 319 2.0 9.0 0.00 0.00 0.00 44 1013.5
20260902195228 98 347 3.0 9.0 0.00 0.00 0.00 45 1013.5
20260902194723 98 9 5.0 9.0 0.00 0.00 0.00 45 1013.6
20260902194218 99 351 5.0 7.0 0.00 0.00 0.00 44 1013.7
20260902193713 98 330 2.0 8.0 0.00 0.00 0.00 45 1013.7
20260902193208 98 346 2.0 9.0 0.00 0.00 0.00 45 1013.6
20260902192706 99 258 3.0 5.0 0.00 0.00 0.00 46 1013.7
20260902192201 98 216 2.0 5.0 0.00 0.00 0.00 47 1013.9
20260902191701 98 265 2.0 5.0 0.00 0.00 0.00 48 1014.1
20260902191155 97 352 4.0 10.0 0.00 0.00 0.00 47 1014.2
20260902190651 97 298 2.0 7.0 0.00 0.00 0.00 47 1013.9
20260902190146 97 290 0.0 5.0 0.00 0.00 0.00 47 1014.1
20260902185642 97 129 2.0 9.0 0.00 0.00 0.00 48 1014.1
20260902185138 97 3 2.0 6.0 0.00 0.00 0.00 47 1014.5
20260902184638 97 289 4.0 8.0 0.00 0.00 0.00 49 1014.5
20260902184133 97 297 3.0 7.0 0.00 0.00 0.00 48 1014.5
20260902183629 96 16 4.0 7.0 0.00 0.00 0.00 48 1014.7
20260902183126 95 0 3.0 6.0 0.00 0.00 0.00 50 1014.7
20260902182621 96 49 5.0 7.0 0.00 0.00 0.00 48 1014.8
20260902182118 96 112 4.0 11.0 0.00 0.00 0.00 49 1014.9
20260902181614 95 43 2.0 9.0 0.00 0.00 0.00 49 1015.2
20260902181113 96 51 4.0 7.0 0.00 0.00 0.00 48 1015.3
20260902180613 95 264 3.0 7.0 0.00 0.00 0.00 52 1015.3
20260902180109 96 281 4.0 4.0 0.00 0.00 0.00 52 1015.5
20260902175608 94 342 3.0 11.0 0.00 0.00 0.00 53 1015.5
20260902175104 95 358 2.0 7.0 0.00 0.00 0.00 51 1015.8
20260902174600 94 57 8.0 8.0 0.00 0.00 0.00 52 1015.7
20260902174050 94 5 3.0 6.0 0.00 0.00 0.00 52 1015.7
20260902173549 95 261 5.0 8.0 0.00 0.00 0.00 53 1015.8
20260902173045 94 337 3.0 8.0 0.00 0.00 0.00 55 1016.0
20260902172539 93 43 5.0 8.0 0.00 0.00 0.00 55 1015.9
20260902172034 94 243 5.0 5.0 0.00 0.00 0.00 56 1016.1
20260902171530 93 351 0.0 8.0 0.00 0.00 0.00 55 1016.1
20260902171025 93 303 2.0 5.0 0.00 0.00 0.00 57 1016.4
20260902170520 93 356 4.0 7.0 0.00 0.00 0.00 56 1016.2
20260902170016 94 240 3.0 6.0 0.00 0.00 0.00 55 1016.3
20260902165516 94 220 0.0 7.0 0.00 0.00 0.00 57 1016.5
20260902165010 92 286 3.0 5.0 0.00 0.00 0.00 60 1016.5
20260902164505 91 256 3.0 5.0 0.00 0.00 0.00 60 1016.5
20260902164004 92 7 3.0 6.0 0.00 0.00 0.00 59 1016.8
20260902163500 93 4 3.0 6.0 0.00 0.00 0.00 58 1016.7
20260902162957 92 234 2.0 7.0 0.00 0.00 0.00 60 1016.6
20260902162453 93 72 0.0 4.0 0.00 0.00 0.00 58 1016.8
20260902161953 93 180 0.0 5.0 0.00 0.00 0.00 58 1016.8
20260902161448 92 41 0.0 4.0 0.00 0.00 0.00 59 1016.7
20260902160943 91 207 1.0 5.0 0.00 0.00 0.00 61 1016.7
20260902160439 91 71 3.0 6.0 0.00 0.00 0.00 59 1016.8
20260902155937 91 62 3.0 4.0 0.00 0.00 0.00 60 1016.9
20260902155433 91 186 3.0 8.0 0.00 0.00 0.00 62 1016.6
20260902154926 89 238 3.0 5.0 0.00 0.00 0.00 64 1016.8
20260902154422 91 262 2.0 5.0 0.00 0.00 0.00 61 1016.8
20260902153921 90 257 2.0 5.0 0.00 0.00 0.00 62 1016.8
20260902153420 89 353 3.0 5.0 0.00 0.00 0.00 64 1016.7
20260902152916 91 328 4.0 5.0 0.00 0.00 0.00 62 1016.9
20260902152412 90 326 3.0 4.0 0.00 0.00 0.00 63 1016.7
20260902151907 90 15 2.0 3.0 0.00 0.00 0.00 63 1016.8
20260902151403 89 247 3.0 4.0 0.00 0.00 0.00 66 1016.8
20260902150857 89 286 0.0 5.0 0.00 0.00 0.00 66 1016.8
20260902150354 89 286 2.0 4.0 0.00 0.00 0.00 66 1016.5
20260902145852 90 329 2.0 5.0 0.00 0.00 0.00 64 1016.7
20260902145348 89 208 3.0 5.0 0.00 0.00 0.00 65 1016.5
20260902144843 88 288 0.0 3.0 0.00 0.00 0.00 67 1016.7
20260902144339 88 336 0.0 3.0 0.00 0.00 0.00 66 1016.4
20260902143834 87 251 2.0 6.0 0.00 0.00 0.00 68 1016.5
20260902143334 88 220 3.0 7.0 0.00 0.00 0.00 68 1016.5
20260902142830 87 353 3.0 5.0 0.00 0.00 0.00 69 1016.5
20260902142326 88 179 1.0 3.0 0.00 0.00 0.00 68 1016.4
20260902141821 86 314 2.0 5.0 0.00 0.00 0.00 70 1016.5
20260902141316 87 44 0.0 3.0 0.00 0.00 0.00 68 1016.4
20260902140815 87 238 0.0 3.0 0.00 0.00 0.00 68 1016.5
20260902140311 87 139 0.0 5.0 0.00 0.00 0.00 68 1016.6
20260902135810 87 262 1.0 3.0 0.00 0.00 0.00 69 1016.5
20260902135307 87 344 2.0 3.0 0.00 0.00 0.00 67 1016.5
20260902134805 86 287 0.0 4.0 0.00 0.00 0.00 70 1016.5
20260902134301 85 242 2.0 4.0 0.00 0.00 0.00 71 1016.3
20260902133756 85 346 2.0 4.0 0.00 0.00 0.00 70 1016.3
20260902133255 84 316 2.0 3.0 0.00 0.00 0.00 71 1016.3
20260902132750 84 142 2.0 4.0 0.00 0.00 0.00 70 1016.2
20260902132246 85 6 3.0 5.0 0.00 0.00 0.00 69 1016.3
20260902131741 84 89 0.0 3.0 0.00 0.00 0.00 71 1016.5
20260902131238 83 251 2.0 5.0 0.00 0.00 0.00 72 1016.4
20260902130737 82 353 2.0 6.0 0.00 0.00 0.00 73 1016.5
20260902130233 83 7 0.0 3.0 0.00 0.00 0.00 73 1016.3
20260902125728 83 227 1.0 2.0 0.00 0.00 0.00 73 1016.3
20260902125224 82 274 1.0 3.0 0.00 0.00 0.00 75 1016.2
20260902124720 81 334 1.0 3.0 0.00 0.00 0.00 76 1016.2
20260902124215 80 355 0.0 2.0 0.00 0.00 0.00 77 1016.3
20260902123710 79 6 2.0 3.0 0.00 0.00 0.00 79 1015.9
20260902123207 79 66 0.0 3.0 0.00 0.00 0.00 79 1016.0
20260902122700 79 341 0.0 5.0 0.00 0.00 0.00 79 1015.9
20260902122156 78 332 0.0 4.0 0.00 0.00 0.00 79 1015.8
20260902121651 78 36 1.0 3.0 0.00 0.00 0.00 79 1015.7
20260902121150 78 300 1.0 4.0 0.00 0.00 0.00 79 1016.0
20260902120647 78 17 0.0 3.0 0.00 0.00 0.00 79 1016.0
20260902120143 78 269 0.0 3.0 0.00 0.00 0.00 79 1015.8
20260902115637 79 333 0.0 3.0 0.00 0.00 0.00 78 1015.9
20260902115134 79 109 0.0 5.0 0.00 0.00 0.00 78 1015.8
20260902114629 79 359 0.0 4.0 0.00 0.00 0.00 78 1015.8
20260902114129 79 341 0.0 3.0 0.00 0.00 0.00 79 1015.9
20260902113625 79 333 0.0 4.0 0.00 0.00 0.00 79 1015.9
20260902113120 79 38 0.0 2.0 0.00 0.00 0.00 79 1016.2
20260902112609 79 85 0.0 2.0 0.00 0.00 0.00 79 1016.0
20260902112106 79 55 0.0 4.0 0.00 0.00 0.00 79 1016.0
20260902111602 79 8 1.0 2.0 0.00 0.00 0.00 80 1016.0
20260902111057 79 269 0.0 2.0 0.00 0.00 0.00 80 1016.0
20260902110553 79 269 0.0 1.0 0.00 0.00 0.00 80 1016.0
20260902110049 79 235 0.0 1.0 0.00 0.00 0.00 79 1015.9
20260902105543 79 230 0.0 0.0 0.00 0.00 0.00 79 1015.8
20260902105043 79 273 0.0 1.0 0.00 0.00 0.00 79 1016.1
20260902104539 79 242 0.0 1.0 0.00 0.00 0.00 79 1015.8
20260902104033 79 235 0.0 1.0 0.00 0.00 0.00 79 1015.7
20260902103529 79 235 0.0 2.0 0.00 0.00 0.00 79 1015.9
20260902103024 79 330 0.0 1.0 0.00 0.00 0.00 79 1015.9
20260902102520 79 249 0.0 2.0 0.00 0.00 0.00 79 1015.8
20260902102017 80 326 0.0 2.0 0.00 0.00 0.00 78 1015.8
20260902101512 80 212 0.0 1.0 0.00 0.00 0.00 77 1015.9
20260902101011 80 264 0.0 1.0 0.00 0.00 0.00 77 1015.9
20260902100506 80 322 0.0 2.0 0.00 0.00 0.00 76 1015.7
20260902100006 80 129 0.0 1.0 0.00 0.00 0.00 76 1015.6
20260902095500 80 230 0.0 1.0 0.00 0.00 0.00 76 1015.8
20260902094959 80 345 0.0 1.0 0.00 0.00 0.00 76 1015.8
20260902094455 80 277 0.0 2.0 0.00 0.00 0.00 76 1015.9
20260902093950 80 343 0.0 2.0 0.00 0.00 0.00 76 1015.8
20260902093445 80 242 0.0 1.0 0.00 0.00 0.00 76 1015.8
20260902092944 80 207 1.0 2.0 0.00 0.00 0.00 76 1015.8
20260902092440 80 232 0.0 2.0 0.00 0.00 0.00 76 1015.7
20260902091939 80 263 0.0 1.0 0.00 0.00 0.00 75 1015.8
20260902091435 81 256 0.0 2.0 0.00 0.00 0.00 75 1015.8
20260902090931 81 299 0.0 1.0 0.00 0.00 0.00 75 1015.6
20260902090426 81 242 0.0 1.0 0.00 0.00 0.00 75 1015.7
20260902085925 81 242 0.0 1.0 0.00 0.00 0.00 75 1015.7
20260902085420 81 237 1.0 2.0 0.00 0.00 0.00 74 1015.5
20260902084915 81 219 0.0 2.0 0.00 0.00 0.00 73 1015.7
20260902084412 82 203 0.0 2.0 0.00 0.00 0.00 73 1015.3
20260902083906 82 197 0.0 2.0 0.00 0.00 0.00 73 1015.5
20260902083401 82 155 1.0 3.0 0.00 0.00 0.00 73 1015.5
20260902082856 82 212 0.0 2.0 0.00 0.00 0.00 72 1015.5
20260902082352 82 283 0.0 2.0 0.00 0.00 0.00 72 1015.7
20260902081848 82 266 0.0 2.0 0.00 0.00 0.00 72 1015.5
20260902081344 82 191 1.0 2.0 0.00 0.00 0.00 72 1015.5
20260902080839 82 202 2.0 3.0 0.00 0.00 0.00 72 1015.7
20260902080335 82 262 2.0 3.0 0.00 0.00 0.00 71 1015.5
20260902075834 82 232 2.0 3.0 0.00 0.00 0.00 71 1015.7
20260902075331 83 246 2.0 3.0 0.00 0.00 0.00 71 1015.7
20260902074825 83 233 0.0 3.0 0.00 0.00 0.00 71 1015.7
20260902074316 83 218 2.0 3.0 0.00 0.00 0.00 71 1015.6
20260902073816 83 220 0.0 3.0 0.00 0.00 0.00 70 1015.5
20260902073312 83 184 1.0 3.0 0.00 0.00 0.00 70 1015.6
20260902072808 83 172 2.0 3.0 0.00 0.00 0.00 70 1015.7
20260902072309 84 244 1.0 3.0 0.00 0.00 0.00 70 1015.6
20260902071800 84 181 2.0 5.0 0.00 0.00 0.00 69 1015.6
20260902071254 84 226 2.0 3.0 0.00 0.00 0.00 69 1015.8
20260902070751 84 236 3.0 5.0 0.00 0.00 0.00 70 1015.7
20260902070250 84 190 4.0 7.0 0.00 0.00 0.00 69 1015.7
20260902065749 84 301 1.0 3.0 0.00 0.00 0.00 69 1015.7
20260902065244 84 241 1.0 6.0 0.00 0.00 0.00 69 1015.8
20260902064740 84 163 2.0 4.0 0.00 0.00 0.00 69 1015.6
20260902064236 84 180 2.0 7.0 0.00 0.00 0.00 69 1015.6
20260902063731 84 184 3.0 7.0 0.00 0.00 0.00 68 1015.6
20260902063226 84 170 1.0 3.0 0.00 0.00 0.00 68 1015.7
20260902062725 84 172 2.0 4.0 0.00 0.00 0.00 69 1015.7
20260902062221 84 240 1.0 5.0 0.00 0.00 0.00 69 1015.8
20260902061719 85 258 0.0 5.0 0.00 0.00 0.00 68 1015.7
20260902061215 85 189 2.0 5.0 0.00 0.00 0.00 69 1015.8
20260902060712 85 187 1.0 5.0 0.00 0.00 0.00 69 1015.6
20260902060207 85 77 3.0 5.0 0.00 0.00 0.00 69 1015.8
20260902055703 85 197 0.0 3.0 0.00 0.00 0.00 68 1015.8
20260902055159 85 207 2.0 4.0 0.00 0.00 0.00 69 1015.7
20260902054654 85 182 3.0 5.0 0.00 0.00 0.00 68 1015.7
20260902054149 85 245 2.0 3.0 0.00 0.00 0.00 68 1015.8
20260902053644 85 184 4.0 5.0 0.00 0.00 0.00 68 1015.5
20260902053139 86 204 3.0 5.0 0.00 0.00 0.00 68 1015.3
20260902052633 86 196 3.0 7.0 0.00 0.00 0.00 68 1015.5
20260902052129 86 301 3.0 4.0 0.00 0.00 0.00 68 1015.7
20260902051627 86 182 1.0 5.0 0.00 0.00 0.00 68 1015.7
20260902051127 86 155 4.0 5.0 0.00 0.00 0.00 68 1015.6
20260902050622 86 244 4.0 5.0 0.00 0.00 0.00 67 1015.3
20260902050117 86 225 2.0 3.0 0.00 0.00 0.00 67 1015.6
20260902045612 86 255 2.0 5.0 0.00 0.00 0.00 66 1015.7
20260902045108 87 190 2.0 5.0 0.00 0.00 0.00 66 1015.5
20260902044608 87 190 2.0 8.0 0.00 0.00 0.00 65 1015.5
20260902044104 87 231 2.0 6.0 0.00 0.00 0.00 64 1015.5
20260902043559 87 243 4.0 5.0 0.00 0.00 0.00 64 1015.5
20260902043054 87 189 2.0 7.0 0.00 0.00 0.00 63 1015.7